ARG1781 SARI-SABE

Flight info

Callsign ARG1781
Flight time 1h 43m
Altitude 34000
Route ALDOS2G ALDOS UP779 DOKBA UT667 GEMSU UN785 GUA UZ129 PAGON PAGON9R
Aircraft B738/M-SDE2E3FGHIRWXY/LB1

Departure

Time 2026-04-26 21:45
Airport Cataratas Del Iguazú International Airport (SARI)

Arrival

Time 2026-04-26 23:29
Airport Aeroparque Jorge Newbery (SABE)
Time Latitude Longitude Altitude Speed Heading
2026-04-26 21:19 -25.73225 -54.47675 926 ft 0 kts 26°
2026-04-26 21:34 -25.73226 -54.47675 926 ft 0 kts 26°
2026-04-26 21:35 -25.73237 -54.47681 929 ft 2 kts 26°
2026-04-26 21:35 -25.73251 -54.47689 927 ft 3 kts 39°
2026-04-26 21:35 -25.73262 -54.47704 928 ft 3 kts 88°
2026-04-26 21:35 -25.73258 -54.47724 928 ft 3 kts 115°
2026-04-26 21:36 -25.73254 -54.47734 929 ft 1 kts 116°
2026-04-26 21:36 -25.73253 -54.47735 928 ft 0 kts 116°
2026-04-26 21:38 -25.73257 -54.47727 928 ft 4 kts 116°
2026-04-26 21:39 -25.73273 -54.47690 928 ft 7 kts 115°
2026-04-26 21:39 -25.73293 -54.47643 927 ft 7 kts 115°
2026-04-26 21:39 -25.73317 -54.47600 928 ft 7 kts 137°
2026-04-26 21:39 -25.73355 -54.47568 929 ft 8 kts 144°
2026-04-26 21:40 -25.73410 -54.47525 926 ft 11 kts 144°
2026-04-26 21:40 -25.73483 -54.47467 926 ft 14 kts 144°
2026-04-26 21:40 -25.73558 -54.47407 927 ft 13 kts 144°
2026-04-26 21:40 -25.73636 -54.47346 927 ft 14 kts 144°
2026-04-26 21:41 -25.73712 -54.47285 929 ft 13 kts 143°
2026-04-26 21:41 -25.73776 -54.47214 928 ft 13 kts 125°
2026-04-26 21:41 -25.73821 -54.47124 929 ft 15 kts 116°
2026-04-26 21:41 -25.73867 -54.47012 929 ft 17 kts 115°
2026-04-26 21:42 -25.73921 -54.46884 930 ft 18 kts 115°
2026-04-26 21:42 -25.73974 -54.46759 927 ft 18 kts 115°
2026-04-26 21:42 -25.74026 -54.46633 929 ft 19 kts 115°
2026-04-26 21:42 -25.74085 -54.46492 925 ft 21 kts 115°
2026-04-26 21:43 -25.74145 -54.46349 926 ft 20 kts 115°
2026-04-26 21:43 -25.74204 -54.46207 927 ft 20 kts 115°
2026-04-26 21:43 -25.74261 -54.46072 925 ft 19 kts 115°
2026-04-26 21:43 -25.74307 -54.45954 927 ft 11 kts 102°
2026-04-26 21:44 -25.74307 -54.45871 927 ft 10 kts 108°
2026-04-26 21:44 -25.74347 -54.45852 926 ft 5 kts 228°
2026-04-26 21:44 -25.74341 -54.45881 927 ft 4 kts 295°
2026-04-26 21:44 -25.74312 -54.45950 929 ft 29 kts 295°
2026-04-26 21:45 -25.74127 -54.46391 924 ft 95 kts 295°
2026-04-26 21:45 -25.73763 -54.47263 927 ft 151 kts 295°
2026-04-26 21:45 -25.73272 -54.48429 1254 ft 171 kts 294°
2026-04-26 21:45 -25.72771 -54.49613 2018 ft 173 kts 292°
2026-04-26 21:46 -25.72230 -54.50899 2546 ft 194 kts 292°
2026-04-26 21:46 -25.71841 -54.52358 3033 ft 208 kts 267°
2026-04-26 21:46 -25.72369 -54.53895 3170 ft 231 kts 225°
2026-04-26 21:46 -25.73773 -54.54896 3580 ft 250 kts 200°
2026-04-26 21:47 -25.75496 -54.55398 4333 ft 258 kts 194°
2026-04-26 21:47 -25.77257 -54.55866 5149 ft 263 kts 195°
2026-04-26 21:47 -25.79046 -54.56361 5949 ft 266 kts 197°
2026-04-26 21:47 -25.80834 -54.56873 6723 ft 270 kts 197°
2026-04-26 21:48 -25.82672 -54.57396 7517 ft 273 kts 197°
2026-04-26 21:48 -25.84515 -54.57918 8335 ft 274 kts 198°
2026-04-26 21:48 -25.86375 -54.58446 9111 ft 278 kts 198°
2026-04-26 21:48 -25.88245 -54.58977 9912 ft 280 kts 199°
2026-04-26 21:49 -25.90178 -54.59528 10420 ft 294 kts 199°
2026-04-26 21:49 -25.92230 -54.60118 10587 ft 318 kts 199°
2026-04-26 21:49 -25.94467 -54.60759 10757 ft 340 kts 199°
2026-04-26 21:49 -25.96787 -54.61420 11083 ft 354 kts 198°
2026-04-26 21:50 -25.99202 -54.62103 11645 ft 359 kts 199°
2026-04-26 21:50 -26.00823 -54.62561 12109 ft 360 kts 199°
2026-04-26 21:50 -26.04079 -54.63482 12973 ft 364 kts 199°
2026-04-26 21:50 -26.06531 -54.64179 13560 ft 369 kts 200°
2026-04-26 21:51 -26.09038 -54.64892 14104 ft 373 kts 199°
2026-04-26 21:51 -26.11554 -54.65609 14569 ft 378 kts 199°
2026-04-26 21:51 -26.14128 -54.66342 15085 ft 382 kts 200°
2026-04-26 21:51 -26.16722 -54.67081 15570 ft 387 kts 200°
2026-04-26 21:52 -26.19327 -54.67825 16022 ft 392 kts 200°
2026-04-26 21:52 -26.21996 -54.68587 16491 ft 396 kts 200°
2026-04-26 21:52 -26.24635 -54.69402 16977 ft 398 kts 204°
2026-04-26 21:52 -26.27265 -54.70352 17438 ft 401 kts 205°
2026-04-26 21:53 -26.29925 -54.71369 17912 ft 405 kts 206°
2026-04-26 21:53 -26.32578 -54.72392 18342 ft 409 kts 206°
2026-04-26 21:53 -26.35312 -54.73438 18774 ft 412 kts 206°
2026-04-26 21:53 -26.38030 -54.74465 19282 ft 412 kts 206°
2026-04-26 21:54 -26.40723 -54.75474 19769 ft 413 kts 206°
2026-04-26 21:54 -26.43467 -54.76500 20241 ft 414 kts 206°
2026-04-26 21:54 -26.46173 -54.77511 20678 ft 416 kts 206°
2026-04-26 21:54 -26.48927 -54.78540 21102 ft 417 kts 206°
2026-04-26 21:55 -26.51695 -54.79576 21522 ft 419 kts 207°
2026-04-26 21:55 -26.54434 -54.80601 21915 ft 420 kts 207°
2026-04-26 21:55 -26.57171 -54.81757 22313 ft 416 kts 213°
2026-04-26 21:55 -26.59666 -54.83341 22679 ft 409 kts 221°
2026-04-26 21:56 -26.62024 -54.85088 23044 ft 410 kts 222°
2026-04-26 21:56 -26.64406 -54.86871 23449 ft 411 kts 222°
2026-04-26 21:56 -26.66766 -54.88635 23832 ft 411 kts 222°
2026-04-26 21:56 -26.69150 -54.90409 24137 ft 412 kts 222°
2026-04-26 21:57 -26.71563 -54.92199 24388 ft 415 kts 222°
2026-04-26 21:57 -26.73962 -54.93972 24644 ft 418 kts 222°
2026-04-26 21:57 -26.76416 -54.95782 24931 ft 420 kts 222°
2026-04-26 21:57 -26.78836 -54.97563 25211 ft 421 kts 222°
2026-04-26 21:58 -26.81297 -54.99374 25452 ft 423 kts 222°
2026-04-26 21:58 -26.83739 -55.01173 25705 ft 425 kts 222°
2026-04-26 21:58 -26.86229 -55.03008 25974 ft 426 kts 223°
2026-04-26 21:58 -26.88691 -55.04822 26236 ft 428 kts 223°
2026-04-26 21:59 -26.91200 -55.06673 26484 ft 430 kts 223°
2026-04-26 21:59 -26.93708 -55.08524 26723 ft 432 kts 223°
2026-04-26 21:59 -26.96208 -55.10370 26999 ft 433 kts 223°
2026-04-26 21:59 -26.98712 -55.12220 27273 ft 434 kts 223°
2026-04-26 22:00 -27.01260 -55.14103 27514 ft 435 kts 223°
2026-04-26 22:00 -27.03776 -55.15965 27726 ft 437 kts 223°
2026-04-26 22:00 -27.06335 -55.17860 27941 ft 439 kts 223°
2026-04-26 22:00 -27.08888 -55.19750 28207 ft 440 kts 223°
2026-04-26 22:01 -27.11418 -55.21623 28538 ft 438 kts 223°
2026-04-26 22:01 -27.13973 -55.23514 28904 ft 437 kts 224°
2026-04-26 22:01 -27.16485 -55.25375 29230 ft 436 kts 224°
2026-04-26 22:01 -27.19038 -55.27270 29571 ft 436 kts 224°
2026-04-26 22:02 -27.21540 -55.29128 29903 ft 435 kts 224°
2026-04-26 22:02 -27.23232 -55.30385 30127 ft 434 kts 224°
2026-04-26 22:02 -27.26603 -55.32890 30525 ft 433 kts 224°
2026-04-26 22:02 -27.29091 -55.34740 30893 ft 431 kts 225°
2026-04-26 22:03 -27.31592 -55.36599 31292 ft 428 kts 225°
2026-04-26 22:03 -27.34055 -55.38433 31601 ft 426 kts 225°
2026-04-26 22:03 -27.36513 -55.40265 31879 ft 426 kts 225°
2026-04-26 22:03 -27.38996 -55.42119 32179 ft 425 kts 225°
2026-04-26 22:04 -27.41444 -55.43945 32509 ft 424 kts 225°
2026-04-26 22:04 -27.43882 -55.45765 32845 ft 422 kts 225°
2026-04-26 22:04 -27.46335 -55.47596 33200 ft 420 kts 225°
2026-04-26 22:04 -27.48782 -55.49423 33571 ft 417 kts 225°
2026-04-26 22:05 -27.51175 -55.51212 33905 ft 415 kts 225°
2026-04-26 22:05 -27.53604 -55.53034 33947 ft 419 kts 225°
2026-04-26 22:05 -27.58441 -55.56656 34010 ft 417 kts 225°
2026-04-26 22:06 -27.63197 -55.60207 33945 ft 404 kts 226°
2026-04-26 22:06 -27.67848 -55.63689 33965 ft 402 kts 226°
2026-04-26 22:07 -27.72543 -55.67225 33962 ft 411 kts 226°
2026-04-26 22:07 -27.77306 -55.70805 33948 ft 412 kts 226°
2026-04-26 22:08 -27.82077 -55.74386 33953 ft 412 kts 226°
2026-04-26 22:08 -27.86831 -55.77959 33956 ft 411 kts 226°
2026-04-26 22:09 -27.91582 -55.81537 33966 ft 410 kts 226°
2026-04-26 22:09 -27.96278 -55.85066 33941 ft 400 kts 226°
2026-04-26 22:10 -28.00892 -55.88552 33959 ft 401 kts 226°
2026-04-26 22:10 -28.05527 -55.92063 33955 ft 402 kts 226°
2026-04-26 22:11 -28.10195 -55.95596 33951 ft 403 kts 226°
2026-04-26 22:11 -28.14857 -55.99128 33956 ft 404 kts 226°
2026-04-26 22:12 -28.19529 -56.02668 33955 ft 405 kts 226°
2026-04-26 22:12 -28.24207 -56.06219 33962 ft 406 kts 227°
2026-04-26 22:13 -28.28911 -56.09792 33954 ft 406 kts 227°
2026-04-26 22:13 -28.33587 -56.13346 33955 ft 406 kts 227°
2026-04-26 22:14 -28.38282 -56.16919 33952 ft 404 kts 227°
2026-04-26 22:14 -28.42941 -56.20469 33954 ft 403 kts 227°
2026-04-26 22:15 -28.47577 -56.24005 33958 ft 402 kts 227°
2026-04-26 22:15 -28.52235 -56.27564 33989 ft 401 kts 227°
2026-04-26 22:16 -28.56849 -56.31093 33980 ft 401 kts 228°
2026-04-26 22:16 -28.61479 -56.34637 33961 ft 401 kts 228°
2026-04-26 22:17 -28.66115 -56.38190 33955 ft 401 kts 228°
2026-04-26 22:17 -28.70710 -56.41714 33960 ft 400 kts 228°
2026-04-26 22:18 -28.75335 -56.45267 33958 ft 400 kts 228°
2026-04-26 22:18 -28.79935 -56.48804 33958 ft 400 kts 228°
2026-04-26 22:19 -28.84538 -56.52347 34011 ft 400 kts 229°
2026-04-26 22:19 -28.89169 -56.55916 33968 ft 401 kts 229°
2026-04-26 22:20 -28.93032 -56.58895 33972 ft 401 kts 229°
2026-04-26 22:20 -28.98391 -56.63034 33967 ft 400 kts 229°
2026-04-26 22:21 -29.03001 -56.66599 33965 ft 400 kts 229°
2026-04-26 22:21 -29.07606 -56.70165 33964 ft 399 kts 229°
2026-04-26 22:22 -29.12191 -56.73719 33955 ft 398 kts 229°
2026-04-26 22:22 -29.16772 -56.77274 33991 ft 398 kts 229°
2026-04-26 22:23 -29.21351 -56.80834 33973 ft 398 kts 229°
2026-04-26 22:23 -29.25928 -56.84393 33999 ft 397 kts 229°
2026-04-26 22:24 -29.30504 -56.87957 33977 ft 397 kts 229°
2026-04-26 22:24 -29.35070 -56.91515 33962 ft 396 kts 229°
2026-04-26 22:25 -29.39602 -56.95051 33966 ft 395 kts 229°
2026-04-26 22:25 -29.44161 -56.98614 33967 ft 395 kts 229°
2026-04-26 22:26 -29.48677 -57.02146 33966 ft 395 kts 229°
2026-04-26 22:26 -29.53216 -57.05701 33970 ft 395 kts 229°
2026-04-26 22:27 -29.57754 -57.09259 33965 ft 395 kts 229°
2026-04-26 22:27 -29.62272 -57.12805 33974 ft 396 kts 229°
2026-04-26 22:28 -29.66821 -57.16379 33970 ft 396 kts 229°
2026-04-26 22:28 -29.71367 -57.19954 33979 ft 396 kts 229°
2026-04-26 22:29 -29.75907 -57.23528 33981 ft 396 kts 229°
2026-04-26 22:29 -29.79712 -57.26528 33989 ft 398 kts 229°
2026-04-26 22:30 -29.84263 -57.30119 33983 ft 397 kts 229°
2026-04-26 22:30 -29.89574 -57.34312 33990 ft 397 kts 229°
2026-04-26 22:31 -29.93365 -57.37310 33986 ft 396 kts 229°
2026-04-26 22:31 -29.97910 -57.40908 33998 ft 396 kts 229°
2026-04-26 22:32 -30.02455 -57.44511 33990 ft 396 kts 229°
2026-04-26 22:32 -30.07728 -57.48694 34070 ft 395 kts 229°
2026-04-26 22:33 -30.13774 -57.53501 34005 ft 396 kts 229°
2026-04-26 22:34 -30.18288 -57.57093 33998 ft 395 kts 229°
2026-04-26 22:34 -30.22806 -57.60691 34001 ft 394 kts 229°
2026-04-26 22:35 -30.27579 -57.64006 33995 ft 412 kts 219°
2026-04-26 22:35 -30.30288 -57.65153 34003 ft 426 kts 212°
2026-04-26 22:35 -30.33146 -57.66137 34012 ft 427 kts 212°
2026-04-26 22:36 -30.38833 -57.68059 34044 ft 427 kts 212°
2026-04-26 22:36 -30.44554 -57.70027 34015 ft 426 kts 212°
2026-04-26 22:37 -30.50208 -57.72000 34005 ft 425 kts 212°
2026-04-26 22:37 -30.55853 -57.73978 34005 ft 423 kts 212°
2026-04-26 22:38 -30.61466 -57.75948 34010 ft 422 kts 212°
2026-04-26 22:38 -30.67072 -57.77916 34009 ft 423 kts 212°
2026-04-26 22:39 -30.72717 -57.79893 34013 ft 422 kts 212°
2026-04-26 22:39 -30.78346 -57.81853 34011 ft 421 kts 212°
2026-04-26 22:40 -30.83927 -57.83798 34004 ft 420 kts 212°
2026-04-26 22:40 -30.89507 -57.85749 34051 ft 419 kts 212°
2026-04-26 22:41 -30.95085 -57.87704 34018 ft 419 kts 211°
2026-04-26 22:41 -31.00672 -57.89662 34008 ft 419 kts 211°
2026-04-26 22:42 -31.06241 -57.91616 34016 ft 419 kts 211°
2026-04-26 22:42 -31.11843 -57.93585 34039 ft 419 kts 211°
2026-04-26 22:43 -31.17410 -57.95544 34051 ft 419 kts 211°
2026-04-26 22:43 -31.23000 -57.97514 34031 ft 419 kts 211°
2026-04-26 22:44 -31.28578 -57.99480 34027 ft 419 kts 211°
2026-04-26 22:44 -31.34134 -58.01441 34020 ft 418 kts 211°
2026-04-26 22:45 -31.39694 -58.03407 34000 ft 418 kts 211°
2026-04-26 22:45 -31.45251 -58.05375 34004 ft 418 kts 211°
2026-04-26 22:46 -31.50856 -58.07362 34002 ft 418 kts 211°
2026-04-26 22:46 -31.56426 -58.09338 33998 ft 418 kts 211°
2026-04-26 22:47 -31.61978 -58.11311 34005 ft 418 kts 211°
2026-04-26 22:47 -31.67526 -58.13284 34019 ft 418 kts 211°
2026-04-26 22:48 -31.73122 -58.15279 34031 ft 419 kts 210°
2026-04-26 22:48 -31.78657 -58.17253 34025 ft 419 kts 210°
2026-04-26 22:49 -31.84254 -58.19251 34019 ft 418 kts 210°
2026-04-26 22:49 -31.89814 -58.21239 34033 ft 418 kts 210°
2026-04-26 22:50 -31.95381 -58.23232 34076 ft 418 kts 210°
2026-04-26 22:50 -32.00931 -58.25222 34032 ft 418 kts 209°
2026-04-26 22:51 -32.06471 -58.27209 34029 ft 416 kts 210°
2026-04-26 22:51 -32.11998 -58.29194 34027 ft 414 kts 210°
2026-04-26 22:52 -32.17513 -58.31179 34028 ft 413 kts 210°
2026-04-26 22:52 -32.22983 -58.33151 34031 ft 411 kts 210°
2026-04-26 22:53 -32.28434 -58.35119 34025 ft 411 kts 210°
2026-04-26 22:53 -32.33891 -58.37088 34034 ft 411 kts 210°
2026-04-26 22:54 -32.39376 -58.39060 34029 ft 411 kts 210°
2026-04-26 22:54 -32.44836 -58.41025 34036 ft 411 kts 210°
2026-04-26 22:55 -32.50316 -58.43002 34034 ft 413 kts 210°
2026-04-26 22:55 -32.55819 -58.44988 34023 ft 413 kts 210°
2026-04-26 22:56 -32.61325 -58.46977 34033 ft 412 kts 210°
2026-04-26 22:56 -32.66790 -58.48955 34037 ft 412 kts 209°
2026-04-26 22:57 -32.72444 -58.50472 34092 ft 423 kts 201°
2026-04-26 22:57 -32.78294 -58.51455 34016 ft 423 kts 200°
2026-04-26 22:58 -32.84073 -58.52416 33998 ft 419 kts 201°
2026-04-26 22:58 -32.89844 -58.53425 33992 ft 415 kts 201°
2026-04-26 22:59 -32.95520 -58.54443 33692 ft 410 kts 201°
2026-04-26 22:59 -32.98289 -58.54938 33405 ft 402 kts 201°
2026-04-26 22:59 -33.01048 -58.55434 32986 ft 397 kts 202°
2026-04-26 22:59 -33.03754 -58.55922 32574 ft 393 kts 202°
2026-04-26 23:00 -33.06459 -58.56413 32189 ft 389 kts 202°
2026-04-26 23:00 -33.09118 -58.56896 31792 ft 385 kts 202°
2026-04-26 23:00 -33.11745 -58.57374 31394 ft 382 kts 202°
2026-04-26 23:00 -33.14355 -58.57848 30999 ft 379 kts 202°
2026-04-26 23:01 -33.16958 -58.58322 30605 ft 376 kts 202°
2026-04-26 23:01 -33.19530 -58.58790 30207 ft 373 kts 202°
2026-04-26 23:01 -33.22108 -58.59260 29791 ft 372 kts 202°
2026-04-26 23:01 -33.24649 -58.59724 29350 ft 369 kts 202°
2026-04-26 23:02 -33.27169 -58.60181 28914 ft 366 kts 202°
2026-04-26 23:02 -33.29687 -58.60639 28497 ft 362 kts 202°
2026-04-26 23:02 -33.32178 -58.61091 28090 ft 358 kts 202°
2026-04-26 23:02 -33.34619 -58.61535 27691 ft 355 kts 202°
2026-04-26 23:03 -33.37032 -58.61975 27307 ft 351 kts 202°
2026-04-26 23:03 -33.39455 -58.62417 26919 ft 348 kts 203°
2026-04-26 23:03 -33.41813 -58.62848 26532 ft 345 kts 203°
2026-04-26 23:03 -33.44199 -58.63284 26192 ft 342 kts 203°
2026-04-26 23:04 -33.46537 -58.63712 25797 ft 340 kts 203°
2026-04-26 23:04 -33.48848 -58.64136 25413 ft 337 kts 203°
2026-04-26 23:04 -33.51170 -58.64562 25027 ft 335 kts 203°
2026-04-26 23:04 -33.53472 -58.64984 24646 ft 333 kts 203°
2026-04-26 23:05 -33.55733 -58.65398 24262 ft 331 kts 203°
2026-04-26 23:05 -33.58011 -58.65817 23880 ft 329 kts 203°
2026-04-26 23:05 -33.60250 -58.66228 23490 ft 327 kts 203°
2026-04-26 23:05 -33.62517 -58.66644 23066 ft 325 kts 203°
2026-04-26 23:06 -33.64743 -58.67052 22664 ft 322 kts 203°
2026-04-26 23:06 -33.66935 -58.67454 22293 ft 319 kts 203°
2026-04-26 23:06 -33.69106 -58.67852 21979 ft 316 kts 204°
2026-04-26 23:06 -33.71253 -58.68247 21591 ft 313 kts 204°
2026-04-26 23:07 -33.73397 -58.68641 21215 ft 310 kts 204°
2026-04-26 23:07 -33.74823 -58.68904 20968 ft 308 kts 204°
2026-04-26 23:07 -33.77643 -58.69424 20490 ft 305 kts 204°
2026-04-26 23:07 -33.79721 -58.69807 20137 ft 302 kts 204°
2026-04-26 23:08 -33.81803 -58.70192 19786 ft 300 kts 204°
2026-04-26 23:08 -33.83835 -58.70568 19423 ft 297 kts 204°
2026-04-26 23:08 -33.85867 -58.70944 19089 ft 295 kts 204°
2026-04-26 23:08 -33.87905 -58.71320 18741 ft 293 kts 204°
2026-04-26 23:09 -33.89900 -58.71689 18404 ft 291 kts 204°
2026-04-26 23:09 -33.91895 -58.72056 18082 ft 290 kts 204°
2026-04-26 23:09 -33.93924 -58.72352 17746 ft 291 kts 201°
2026-04-26 23:09 -33.95933 -58.72570 17460 ft 290 kts 200°
2026-04-26 23:10 -33.97929 -58.72771 17185 ft 289 kts 200°
2026-04-26 23:10 -33.99928 -58.72972 16912 ft 287 kts 199°
2026-04-26 23:10 -34.01955 -58.73079 16564 ft 299 kts 190°
2026-04-26 23:10 -34.04043 -58.72727 16270 ft 306 kts 185°
2026-04-26 23:11 -34.06140 -58.72301 15951 ft 308 kts 184°
2026-04-26 23:11 -34.08270 -58.71860 15636 ft 308 kts 184°
2026-04-26 23:11 -34.10365 -58.71430 15329 ft 307 kts 184°
2026-04-26 23:11 -34.12467 -58.71003 15028 ft 307 kts 183°
2026-04-26 23:12 -34.14592 -58.70578 14744 ft 307 kts 180°
2026-04-26 23:12 -34.16686 -58.70161 14419 ft 304 kts 180°
2026-04-26 23:12 -34.18754 -58.69750 14109 ft 301 kts 179°
2026-04-26 23:12 -34.20808 -58.69343 13804 ft 298 kts 178°
2026-04-26 23:13 -34.22858 -58.68938 13469 ft 295 kts 178°
2026-04-26 23:13 -34.24855 -58.68544 13155 ft 291 kts 178°
2026-04-26 23:13 -34.26854 -58.68149 12856 ft 288 kts 178°
2026-04-26 23:13 -34.28827 -58.67761 12561 ft 285 kts 178°
2026-04-26 23:14 -34.30763 -58.67380 12283 ft 284 kts 178°
2026-04-26 23:14 -34.32713 -58.66998 12008 ft 285 kts 178°
2026-04-26 23:14 -34.34688 -58.66612 11735 ft 287 kts 177°
2026-04-26 23:14 -34.36670 -58.66223 11449 ft 287 kts 176°
2026-04-26 23:15 -34.38613 -58.65839 11157 ft 286 kts 176°
2026-04-26 23:15 -34.40579 -58.65451 10869 ft 285 kts 176°
2026-04-26 23:15 -34.42520 -58.65067 10596 ft 283 kts 176°
2026-04-26 23:15 -34.44450 -58.64685 10328 ft 279 kts 176°
2026-04-26 23:16 -34.46358 -58.64307 10067 ft 272 kts 177°
2026-04-26 23:16 -34.48178 -58.63944 9943 ft 258 kts 177°
2026-04-26 23:16 -34.49963 -58.63592 9556 ft 258 kts 177°
2026-04-26 23:16 -34.51707 -58.63249 9303 ft 255 kts 177°
2026-04-26 23:17 -34.53462 -58.62903 9046 ft 252 kts 177°
2026-04-26 23:17 -34.55173 -58.62566 8788 ft 250 kts 177°
2026-04-26 23:17 -34.56878 -58.62229 8541 ft 249 kts 177°
2026-04-26 23:17 -34.58588 -58.61890 8291 ft 247 kts 177°
2026-04-26 23:18 -34.60239 -58.61202 8007 ft 259 kts 154°
2026-04-26 23:18 -34.61520 -58.59624 7782 ft 272 kts 130°
2026-04-26 23:18 -34.62288 -58.57494 7526 ft 281 kts 116°
2026-04-26 23:18 -34.62893 -58.55210 7235 ft 282 kts 115°
2026-04-26 23:19 -34.63470 -58.52956 6943 ft 280 kts 115°
2026-04-26 23:19 -34.64045 -58.50709 6658 ft 274 kts 116°
2026-04-26 23:19 -34.64607 -58.48534 6382 ft 267 kts 117°
2026-04-26 23:19 -34.65168 -58.46388 6085 ft 262 kts 117°
2026-04-26 23:20 -34.65710 -58.44327 5802 ft 257 kts 117°
2026-04-26 23:20 -34.66252 -58.42277 5533 ft 251 kts 118°
2026-04-26 23:20 -34.66776 -58.40294 5274 ft 245 kts 118°
2026-04-26 23:20 -34.67296 -58.38334 5052 ft 240 kts 118°
2026-04-26 23:21 -34.67811 -58.36405 4848 ft 246 kts 118°
2026-04-26 23:21 -34.68342 -58.34414 4565 ft 248 kts 118°
2026-04-26 23:21 -34.68872 -58.32410 4320 ft 246 kts 118°
2026-04-26 23:21 -34.69381 -58.30471 4116 ft 241 kts 119°
2026-04-26 23:22 -34.69892 -58.28525 3850 ft 238 kts 118°
2026-04-26 23:22 -34.70357 -58.26625 3597 ft 233 kts 118°
2026-04-26 23:22 -34.70818 -58.24766 3489 ft 222 kts 118°
2026-04-26 23:22 -34.71190 -58.23022 3452 ft 214 kts 106°
2026-04-26 23:23 -34.71060 -58.21797 3401 ft 225 kts 70°
2026-04-26 23:23 -34.69583 -58.20168 3427 ft 216 kts
2026-04-26 23:23 -34.68628 -58.20004 3453 ft 201 kts 342°
2026-04-26 23:23 -34.67067 -58.20822 3245 ft 172 kts 301°
2026-04-26 23:24 -34.66590 -58.21521 3137 ft 152 kts 284°
2026-04-26 23:24 -34.66154 -58.22642 2994 ft 143 kts 279°
2026-04-26 23:24 -34.65810 -58.23760 2877 ft 142 kts 276°
2026-04-26 23:24 -34.65275 -58.24872 2756 ft 159 kts 293°
2026-04-26 23:25 -34.64638 -58.25970 2594 ft 161 kts 291°
2026-04-26 23:25 -34.64004 -58.27090 2435 ft 157 kts 291°
2026-04-26 23:25 -34.63415 -58.28131 2281 ft 145 kts 291°
2026-04-26 23:25 -34.62850 -58.29141 2140 ft 144 kts 291°
2026-04-26 23:26 -34.62287 -58.30151 2001 ft 144 kts 291°
2026-04-26 23:26 -34.61728 -58.31155 1867 ft 143 kts 292°
2026-04-26 23:26 -34.61187 -58.32118 1742 ft 132 kts 291°
2026-04-26 23:26 -34.60678 -58.33035 1560 ft 132 kts 291°
2026-04-26 23:27 -34.60174 -58.33940 1376 ft 129 kts 292°
2026-04-26 23:27 -34.59668 -58.34852 1197 ft 131 kts 293°
2026-04-26 23:27 -34.59156 -58.35774 1033 ft 131 kts 293°
2026-04-26 23:27 -34.58649 -58.36683 845 ft 131 kts 294°
2026-04-26 23:28 -34.58138 -58.37601 685 ft 131 kts 294°
2026-04-26 23:28 -34.57641 -58.38535 487 ft 132 kts 296°
2026-04-26 23:28 -34.57127 -58.39442 307 ft 131 kts 298°
2026-04-26 23:28 -34.56598 -58.40381 121 ft 137 kts 300°
2026-04-26 23:29 -34.56062 -58.41320 27 ft 123 kts 298°
2026-04-26 23:29 -34.55781 -58.41837 24 ft 49 kts 304°
2026-04-26 23:29 -34.55601 -58.42158 28 ft 43 kts 304°
2026-04-26 23:29 -34.55452 -58.42425 27 ft 30 kts 304°
2026-04-26 23:30 -34.55376 -58.42495 28 ft 11 kts 30°
2026-04-26 23:30 -34.55366 -58.42408 24 ft 11 kts 98°
2026-04-26 23:30 -34.55400 -58.42326 25 ft 11 kts 126°
2026-04-26 23:30 -34.55445 -58.42255 25 ft 10 kts 128°
2026-04-26 23:31 -34.55488 -58.42185 24 ft 11 kts 126°
2026-04-26 23:31 -34.55541 -58.42101 28 ft 14 kts 127°
2026-04-26 23:31 -34.55600 -58.42001 26 ft 14 kts 123°
2026-04-26 23:31 -34.55655 -58.41903 29 ft 14 kts 124°
2026-04-26 23:32 -34.55707 -58.41810 24 ft 13 kts 123°
2026-04-26 23:32 -34.55752 -58.41716 26 ft 13 kts 116°
2026-04-26 23:32 -34.55791 -58.41621 24 ft 12 kts 116°
2026-04-26 23:32 -34.55829 -58.41529 25 ft 12 kts 117°
2026-04-26 23:33 -34.55867 -58.41441 28 ft 11 kts 117°
2026-04-26 23:33 -34.55884 -58.41398 28 ft 0 kts 116°
2026-04-26 23:35 -34.55888 -58.41390 26 ft 3 kts 117°
2026-04-26 23:36 -34.55900 -58.41362 25 ft 4 kts 118°
2026-04-26 23:36 -34.55911 -58.41329 28 ft 4 kts 105°
2026-04-26 23:36 -34.55892 -58.41302 25 ft 5 kts 31°
2026-04-26 23:36 -34.55861 -58.41280 27 ft 5 kts 22°
2026-04-26 23:37 -34.55829 -58.41298 24 ft 5 kts 306°
2026-04-26 23:37 -34.55809 -58.41336 24 ft 5 kts 303°
2026-04-26 23:37 -34.55794 -58.41348 27 ft 3 kts
2026-04-26 23:37 -34.55777 -58.41338 26 ft 3 kts 30°
2026-04-26 23:38 -34.55762 -58.41327 24 ft 1 kts 33°
2026-04-26 23:38 -34.55760 -58.41325 24 ft 0 kts 33°